Weather History for KFST - April, 2014

Change the Weather History Date:

Sunday, April 13, 2014

  Actual Average Record
Temperature  
Mean Temperature 77 °F -  
Max Temperature 88 °F 79 °F 100 °F (2012)
Min Temperature 64 °F 51 °F 30 °F (1997)
Cooling Degree Days 12    
Growing Degree Days 27 (Base 50)    
Moisture  
Dew Point 25 °F    
Average Humidity 18    
Maximum Humidity 43    
Minimum Humidity 5    
Precipitation  
Precipitation 0.00 in - - ()
Sea Level Pressure  
Sea Level Pressure 29.62 in    
Wind  
Wind Speed 10 mph (WSW)    
Max Wind Speed 23 mph    
Max Gust Speed 38 mph    
Visibility 10 miles    
Events      
Averages and records for this station are not official NWS values.
T = Trace of Precipitation, MM = Missing Value Source: NWS Daily Summary

Daily Weather History Graph

Daily Weather History Graph

Search for Another Location

Airport or City:

Trip Planner

Search our weather history database for the weather conditions in past years. The results will help you decide how hot, cold, wet, or windy it might be!

Date:

Astronomy

Apr. 13, 2014 Rise Set
Actual Time 7:26 AM CDT 8:18 PM CDT
Civil Twilight 7:01 AM CDT 8:43 PM CDT
Nautical Twilight 6:32 AM CDT 9:12 PM CDT
Astronomical Twilight 6:02 AM CDT 9:42 PM CDT
Moon 7:03 PM CDT (4/13) 6:19 AM CDT (4/13)
Length of Visible Light 13h 41m
Length of Day
12h 52m
Waxing Gibbous, 97% of the Moon is Illuminated
Apr 13
Waxing Gibbous
Apr 15
Full
Apr 22
Last Quarter
Apr 29
New
May 6
First Quarter

Hourly Weather History & Observations

Time (CDT) Temp. Dew Point Humidity Pressure Visibility Wind Dir Wind Speed Gust Speed Precip Events Conditions
12:53 AM 77.0 °F 33.1 °F 20% 29.64 in 10.0 mi SSW 9.2 mph - N/A   Partly Cloudy
1:53 AM 73.0 °F 34.0 °F 24% 29.62 in 10.0 mi SE 9.2 mph - N/A   Clear
2:53 AM 72.0 °F 48.0 °F 43% 29.62 in 10.0 mi South 6.9 mph - N/A   Clear
3:53 AM 71.1 °F 39.0 °F 31% 29.60 in 10.0 mi SSW 9.2 mph - N/A   Clear
4:53 AM 69.1 °F 36.0 °F 30% 29.62 in 10.0 mi SW 4.6 mph - N/A   Clear
5:53 AM 69.1 °F 36.0 °F 30% 29.63 in 10.0 mi West 4.6 mph - N/A   Scattered Clouds
6:53 AM 66.9 °F 37.0 °F 33% 29.65 in 10.0 mi South 4.6 mph - N/A   Clear
7:53 AM 69.1 °F 37.0 °F 31% 29.65 in 10.0 mi SSW 8.1 mph - N/A   Clear
8:53 AM 68.0 °F 37.0 °F 32% 29.66 in 10.0 mi South 8.1 mph - N/A   Clear
9:53 AM 70.0 °F 37.9 °F 31% 29.68 in 10.0 mi North 3.5 mph - N/A   Clear
10:53 AM 80.1 °F 34.0 °F 19% 29.67 in 10.0 mi WNW 15.0 mph 21.9 mph N/A   Clear
11:53 AM 82.0 °F 30.9 °F 16% 29.66 in 10.0 mi WNW 16.1 mph 24.2 mph N/A   Clear
12:53 PM 84.0 °F 30.0 °F 14% 29.63 in 10.0 mi WNW 18.4 mph 29.9 mph N/A   Clear
1:53 PM 87.1 °F 28.0 °F 12% 29.60 in 7.0 mi West 21.9 mph 32.2 mph N/A   Clear
2:53 PM 88.0 °F 12.9 °F 6% 29.60 in 10.0 mi WNW 23.0 mph 38.0 mph N/A   Clear
3:53 PM 86.0 °F 12.9 °F 7% 29.59 in 10.0 mi NW 18.4 mph 29.9 mph N/A   Clear
4:53 PM 87.1 °F 8.1 °F 5% 29.57 in 10.0 mi WNW 13.8 mph 29.9 mph N/A   Clear
5:53 PM 86.0 °F 7.0 °F 5% 29.55 in 10.0 mi West 19.6 mph 25.3 mph N/A   Clear
6:53 PM 84.9 °F 6.1 °F 5% 29.55 in 10.0 mi West 13.8 mph 24.2 mph N/A   Clear
7:53 PM 82.0 °F 7.0 °F 6% 29.57 in 10.0 mi West 9.2 mph 17.3 mph N/A   Clear
8:53 PM 71.1 °F 9.0 °F 9% 29.60 in 10.0 mi SW 6.9 mph - N/A   Clear
9:53 PM 71.1 °F 10.0 °F 9% 29.62 in 10.0 mi WSW 11.5 mph - N/A   Clear
10:53 PM 69.1 °F 10.9 °F 11% 29.62 in 10.0 mi SW 11.5 mph - N/A   Clear
11:53 PM 64.0 °F 10.0 °F 12% 29.63 in 10.0 mi SW 9.2 mph - N/A   Clear